Location: Newark
(15.5800°N, 32.5200°E)
Time: 14:28:32
(UTC+00:00)

X-37B - Visible Passes

Search period start: 29 September 2020 00:00
Search period end: 09 October 2020 00:00
Orbit: 386 x 387 km, 45.0° (Epoch: 18 September)

Date Brightness Start Highest point End Pass type
(mag) Time Alt. Az. Time Alt. Az. Time Alt. Az.
29 Sep 0.5 02:29:13 58° SW 02:29:18 59° SW 02:32:24 10° SE visible
29 Sep 3.6 17:17:58 10° WNW 17:19:13 12° NW 17:20:04 11° NNW visible
30 Sep 2.6 16:17:48 10° WSW 16:20:33 27° NW 16:23:17 10° NNE visible
02 Oct 3.6 15:58:50 10° WNW 16:00:05 12° NW 16:01:20 10° NNW visible
